Rochester, Indiana, United States (46975)
Lat: 41.06N, Lon: 86.22W
Wx Zone: INZ015
Local Info
Past Weather Observations for Today

NOTE: This archive is for the closest National Weather Service station to Rochester. Information may differ from the station used for current weather conditions.

Click here for Long-term Archive

Time Weather Temperature Dewpoint Humidity Pressure Winds Precip Visibility
16:35
Overcast
27°F / -3°C 19°F / -7°C 74% 30.15 in
(1021 mb)
SSW 6.9 mph
(SSW 11 kph)
- 10SM
16:15
Overcast
27°F / -3°C 19°F / -7°C 74% 30.15 in
(1021 mb)
SSW 6.9 mph
(SSW 11 kph)
- 10SM
15:55
Overcast
27°F / -3°C 19°F / -7°C 74% 30.12 in
(1020 mb)
SSW 8.1 mph
(SSW 13 kph)
- 10SM
15:35
Overcast
27°F / -3°C 19°F / -7°C 74% 30.12 in
(1020 mb)
SSW 9.2 mph
(SSW 15 kph)
- 10SM
15:15
Overcast
27°F / -3°C 19°F / -7°C 74% 30.12 in
(1020 mb)
SSW 9.2 mph
(SSW 15 kph)
- 10SM
14:55
Overcast
27°F / -3°C 19°F / -7°C 74% 30.12 in
(1020 mb)
SSW 11.5 mph
(SSW 19 kph)
- 10SM
14:35
Overcast
27°F / -3°C 19°F / -7°C 74% 30.12 in
(1020 mb)
SSW 10.4 mph
(SSW 17 kph)
- 10SM
14:15
Overcast
28°F / -2°C 19°F / -7°C 69% 30.12 in
(1020 mb)
SSW 6.9 mph
(SSW 11 kph)
- 10SM
13:55
Overcast
28°F / -2°C 19°F / -7°C 69% 30.09 in
(1019 mb)
SSW 11.5 mph
(SSW 19 kph)
- 10SM
13:35
Overcast
28°F / -2°C 19°F / -7°C 69% 30.09 in
(1019 mb)
SSW 9.2 mph
(SSW 15 kph)
- 10SM
13:15
Overcast
28°F / -2°C 19°F / -7°C 69% 30.09 in
(1019 mb)
SSW 9.2 mph
(SSW 15 kph)
- 10SM
12:55
Overcast
28°F / -2°C 19°F / -7°C 69% 30.09 in
(1019 mb)
W 11.5 mph
(W 19 kph)
- 10SM
12:15
Overcast
28°F / -2°C 19°F / -7°C 69% 30.09 in
(1019 mb)
SSW 13.8 mph
(SSW 22 kph)
- 10SM
11:55
Overcast
27°F / -3°C 19°F / -7°C 74% 30.09 in
(1019 mb)
SSW 12.7 mph
(SSW 20 kph)
- 10SM
11:35
Overcast
28°F / -2°C 19°F / -7°C 69% 30.09 in
(1019 mb)
SSW 15 mph
(SSW 24 kph)
- 10SM
11:15
Overcast
27°F / -3°C 19°F / -7°C 74% 30.09 in
(1019 mb)
W 15 mph
(W 24 kph)
- 10SM
10:55
Overcast
27°F / -3°C 19°F / -7°C 74% 30.06 in
(1018 mb)
SSW 16.1 mph
(SSW 26 kph)
- 10SM
10:15
Overcast
27°F / -3°C 21°F / -6°C 80% 30.06 in
(1018 mb)
SSW 13.8 mph
(SSW 22 kph)
- 10SM
09:55
Overcast
27°F / -3°C 21°F / -6°C 80% 30.04 in
(1017 mb)
W 18.4 mph
(W 30 kph)
- 10SM
09:35
Overcast
27°F / -3°C 21°F / -6°C 80% 30.04 in
(1017 mb)
W 16.1 mph
(W 26 kph)
- 10SM
09:15
Overcast
27°F / -3°C 23°F / -5°C 86% 30.01 in
(1016 mb)
W 16.1 mph
(W 26 kph)
- 10SM
08:55
Overcast
28°F / -2°C 23°F / -5°C 80% 30.01 in
(1016 mb)
W 15 mph
(W 24 kph)
- 10SM
08:35
Overcast
28°F / -2°C 23°F / -5°C 80% 30.01 in
(1016 mb)
SSW 15 mph
(SSW 24 kph)
- 10SM
08:15
Overcast
28°F / -2°C 23°F / -5°C 80% 29.98 in
(1015 mb)
W 17.3 mph
(W 28 kph)
- 10SM
07:55
Overcast
28°F / -2°C 25°F / -4°C 86% 29.98 in
(1015 mb)
SSW 19.6 mph
(SSW 32 kph)
- 10SM
07:35
Overcast
28°F / -2°C 25°F / -4°C 86% 29.98 in
(1015 mb)
SSW 15 mph
(SSW 24 kph)
- 10SM
07:15
Overcast
30°F / -1°C 23°F / -5°C 75% 29.95 in
(1014 mb)
SSW 19.6 mph
(SSW 32 kph)
- 10SM
06:55
Overcast
28°F / -2°C 25°F / -4°C 86% 29.95 in
(1014 mb)
SSW 11.5 mph
(SSW 19 kph)
- 10SM
06:35
Overcast
28°F / -2°C 23°F / -5°C 80% 29.95 in
(1014 mb)
SSW 10.4 mph
(SSW 17 kph)
- 10SM
06:15
Overcast
28°F / -2°C 23°F / -5°C 80% 29.95 in
(1014 mb)
SSW 15 mph
(SSW 24 kph)
- 10SM
05:55
Overcast
30°F / -1°C 23°F / -5°C 75% 29.92 in
(1013 mb)
SSW 17.3 mph
(SSW 28 kph)
- 10SM
05:35
Overcast
30°F / -1°C 25°F / -4°C 80% 29.92 in
(1013 mb)
SSW 18.4 mph
(SSW 30 kph)
- 10SM
05:15
Overcast
30°F / -1°C 25°F / -4°C 80% 29.92 in
(1013 mb)
SSW 17.3 mph
(SSW 28 kph)
- 10SM
04:55
Overcast
30°F / -1°C 25°F / -4°C 80% 29.89 in
(1012 mb)
SSW 11.5 mph
(SSW 19 kph)
- 10SM
04:35
Overcast
30°F / -1°C 23°F / -5°C 75% 29.89 in
(1012 mb)
SSW 15 mph
(SSW 24 kph)
- 10SM
04:15
Overcast
30°F / -1°C 25°F / -4°C 80% 29.89 in
(1012 mb)
SSW 10.4 mph
(SSW 17 kph)
- 10SM
03:55
Overcast
30°F / -1°C 25°F / -4°C 80% 29.89 in
(1012 mb)
SSW 13.8 mph
(SSW 22 kph)
- 10SM
03:35
Overcast
30°F / -1°C 23°F / -5°C 75% 29.89 in
(1012 mb)
SSW 16.1 mph
(SSW 26 kph)
- 10SM
03:15
Overcast
28°F / -2°C 23°F / -5°C 80% 29.89 in
(1012 mb)
SSW 15 mph
(SSW 24 kph)
- 10SM
02:55
Overcast
30°F / -1°C 25°F / -4°C 80% 29.86 in
(1011 mb)
SSW 19.6 mph
(SSW 32 kph)
- 10SM
02:35
Overcast
30°F / -1°C 25°F / -4°C 80% 29.86 in
(1011 mb)
SSW 16.1 mph
(SSW 26 kph)
- 10SM
02:15
Overcast
30°F / -1°C 25°F / -4°C 80% 29.83 in
(1010 mb)
SSW 18.4 mph
(SSW 30 kph)
- 10SM
01:55
Overcast
Light Snow
30°F / -1°C 25°F / -4°C 80% 29.83 in
(1010 mb)
SSW 16.1 mph
(SSW 26 kph)
- 10SM
01:35
Overcast
30°F / -1°C 25°F / -4°C 80% 29.83 in
(1010 mb)
SSW 16.1 mph
(SSW 26 kph)
- 10SM
01:15
Overcast
Light Snow
30°F / -1°C 25°F / -4°C 80% 29.83 in
(1010 mb)
SSW 16.1 mph
(SSW 26 kph)
- 10SM
00:55
Overcast
Light Snow
30°F / -1°C 25°F / -4°C 80% 29.83 in
(1010 mb)
SSW 15 mph
(SSW 24 kph)
- 10SM
00:35
Overcast
30°F / -1°C 25°F / -4°C 80% 29.83 in
(1010 mb)
SSW 17.3 mph
(SSW 28 kph)
- 10SM
00:15
Overcast
Light Snow
30°F / -1°C 27°F / -3°C 86% 29.83 in
(1010 mb)
SSW 17.3 mph
(SSW 28 kph)
- 10SM
Time Weather Temperature Dewpoint Humidity Pressure Winds Precip Visibility


Weather for websites

WeatherForYou.com, LLC is not responsible for any damages or problems caused by this service. Current weather conditions are obtained from the closest station including government and personal stations which may have varying degrees of accuracy. Weather forecasts are derived from the NOAA NDFD. Like all things, this site belongs to Jesus Christ... He just trusts me to maintain it. If you have any questions or comments email webmaster@weatherforyou.com

Copyright © 2014, WeatherForYou.com LLC. All rights reserved.